FW0151 Weather Reports


time (UTC)temp
C
wind
direction
speed
KPH
gust
KPH
rain 1hr
cm
rain 24hr
cm
rain mn
cm
humidity
%
barometer
mb
20260510081518 15 23 17.7 33.8 0.00 0.00 0.00 66 1014.1
20260510080518 15 45 4.8 22.5 0.00 0.00 0.00 67 1014.3
20260510075518 14 45 8.0 25.7 0.00 0.00 0.00 68 1014.5
20260510074518 14 45 6.4 24.1 0.00 0.00 0.00 69 1014.6
20260510073520 14 45 9.7 24.1 0.00 0.00 0.00 70 1014.7
20260510072518 13 45 8.0 25.7 0.00 0.00 0.00 71 1014.8
20260510071539 13 23 4.8 22.5 0.00 0.00 0.00 73 1014.8
20260510070518 13 0.0 3.2 0.00 0.00 0.00 75 1014.9
20260510065518 13 45 11.3 24.1 0.00 0.00 0.00 76 1015.0
20260510064518 13 45 1.6 16.1 0.00 0.00 0.00 78 1015.0
20260510063518 12 23 6.4 19.3 0.00 0.00 0.00 79 1015.0
20260510062538 12 45 6.4 19.3 0.00 0.00 0.00 82 1015.0
20260510061538 12 23 3.2 14.5 0.00 0.00 0.00 84 1015.0
20260510060556 12 45 1.6 16.1 0.00 0.00 0.00 85 1014.9
20260510055520 11 0.0 11.3 0.00 0.00 0.00 87 1014.9
20260510054518 11 0.0 0.0 0.00 0.00 0.00 88 1014.9
20260510053518 11 0.0 0.0 0.00 0.00 0.00 89 1015.0
20260510052516 10 0.0 0.0 0.00 0.00 0.00 90 1014.9
20260510051518 10 0.0 0.0 0.00 0.00 0.00 90 1014.9
20260510050520 10 0.0 0.0 0.00 0.00 0.00 90 1014.8
20260510045536 10 0.0 0.0 0.00 0.00 0.00 90 1014.8
20260510044516 10 0.0 0.0 0.00 0.00 0.00 90 1014.9
20260510043518 10 0.0 0.0 0.00 0.00 0.00 89 1014.9
20260510042553 10 0.0 0.0 0.00 0.00 0.00 89 1014.9
20260510041519 10 0.0 1.6 0.00 0.00 0.00 88 1014.8
20260510040516 10 0.0 0.0 0.00 0.00 0.00 88 1014.7
20260510035517 10 0.0 0.0 0.00 0.00 0.00 88 1014.7
20260510034516 10 0.0 0.0 0.00 0.00 0.00 88 1014.8
20260510033516 10 0.0 0.0 0.00 0.00 0.00 89 1014.7
20260510032516 10 0.0 0.0 0.00 0.00 0.00 89 1014.6
20260510031516 10 0.0 6.4 0.00 0.00 0.00 89 1014.6
20260510030516 10 0.0 0.0 0.00 0.00 0.00 89 1014.7
20260510025518 10 0.0 1.6 0.00 0.00 0.00 89 1014.7
20260510024519 10 0.0 0.0 0.00 0.00 0.00 89 1014.8
20260510023518 10 0.0 0.0 0.00 0.00 0.00 89 1014.7
20260510022519 10 0.0 0.0 0.00 0.00 0.00 89 1014.8
20260510021517 10 0.0 0.0 0.00 0.00 0.00 89 1014.9
20260510020516 10 0.0 0.0 0.00 0.00 0.00 89 1015.0
20260510015536 10 0.0 0.0 0.00 0.00 0.00 88 1015.1
20260510014516 10 0.0 0.0 0.00 0.00 0.00 88 1015.1
20260510013516 10 0.0 0.0 0.00 0.00 0.00 87 1015.1
20260510012556 10 0.0 0.0 0.00 0.00 0.00 87 1015.1
20260510011518 10 0.0 0.0 0.00 0.00 0.00 86 1015.1
20260510010516 10 0.0 0.0 0.00 0.00 0.00 86 1015.1
20260510005536 10 0.0 0.0 0.00 0.00 0.00 86 1015.3
20260510004536 10 0.0 0.0 0.00 0.00 0.00 85 1015.4
20260510003516 10 0.0 0.0 0.00 0.00 0.00 85 1015.5
20260510002516 10 0.0 0.0 0.00 0.00 0.00 84 1015.6
20260510001516 10 0.0 0.0 0.00 0.00 0.00 84 1015.7
20260510000516 10 0.0 1.6 0.00 0.00 0.00 84 1015.7
20260509235516 11 0.0 0.0 0.00 0.00 0.00 83 1015.8
20260509234516 11 0.0 0.0 0.00 0.00 0.00 83 1015.7
20260509233517 11 0.0 0.0 0.00 0.00 0.00 83 1015.9
20260509232518 11 0.0 0.0 0.00 0.00 0.00 83 1016.0
20260509231516 11 0.0 0.0 0.00 0.00 0.00 83 1016.0
20260509230517 11 0.0 1.6 0.00 0.00 0.00 83 1015.9
20260509225516 11 0.0 1.6 0.00 0.00 0.00 83 1015.9
20260509224518 11 0.0 1.6 0.00 0.00 0.00 82 1016.0
20260509223518 11 0.0 3.2 0.00 0.00 0.00 82 1016.0
20260509222516 11 0.0 1.6 0.00 0.00 0.00 82 1016.0
20260509221516 11 0.0 0.0 0.00 0.00 0.00 81 1016.0
20260509220518 11 0.0 0.0 0.00 0.00 0.00 81 1016.0
20260509215516 11 45 6.4 9.7 0.00 0.00 0.00 80 1015.9
20260509214516 11 23 8.0 14.5 0.00 0.00 0.00 80 1015.8
20260509213517 11 23 6.4 11.3 0.00 0.00 0.00 79 1015.8
20260509212516 12 45 6.4 11.3 0.00 0.00 0.00 78 1015.9
20260509211516 12 23 8.0 14.5 0.00 0.00 0.00 77 1015.9
20260509210516 12 23 8.0 14.5 0.00 0.00 0.00 77 1015.9
20260509205517 12 23 8.0 12.9 0.00 0.00 0.00 76 1015.8
20260509204557 12 23 6.4 12.9 0.00 0.00 0.00 75 1015.8
20260509203516 12 23 8.0 12.9 0.00 0.00 0.00 75 1015.8
20260509202516 12 45 6.4 12.9 0.00 0.00 0.00 74 1015.7
20260509201517 12 23 6.4 11.3 0.00 0.00 0.00 74 1015.7
20260509200519 12 23 6.4 9.7 0.00 0.00 0.00 73 1015.7
20260509195519 13 23 8.0 14.5 0.00 0.00 0.00 73 1015.6
20260509194519 13 23 8.0 14.5 0.00 0.00 0.00 72 1015.5
20260509193517 13 23 9.7 19.3 0.00 0.00 0.00 71 1015.5
20260509192537 13 23 9.7 19.3 0.00 0.00 0.00 71 1015.4
20260509191558 13 23 9.7 16.1 0.00 0.00 0.00 70 1015.3
20260509190516 14 23 8.0 12.9 0.00 0.00 0.00 70 1015.3
20260509185516 14 23 9.7 16.1 0.00 0.00 0.00 70 1015.2
20260509184516 15 23 9.7 19.3 0.00 0.00 0.00 68 1015.2
20260509183516 15 45 12.9 20.9 0.00 0.00 0.00 67 1015.3
20260509182538 15 45 11.3 19.3 0.00 0.00 0.00 66 1015.2
20260509181516 16 45 14.5 24.1 0.00 0.00 0.00 65 1015.2
20260509180521 16 23 12.9 24.1 0.00 0.00 0.00 64 1015.2
20260509175518 16 23 14.5 25.7 0.00 0.00 0.00 63 1015.2
20260509174518 16 23 16.1 29.0 0.00 0.00 0.00 62 1015.2
20260509173520 17 45 16.1 25.7 0.00 0.00 0.00 60 1015.1
20260509172523 17 45 14.5 22.5 0.00 0.00 0.00 60 1015.0
20260509171517 17 23 16.1 29.0 0.00 0.00 0.00 62 1014.9
20260509170516 17 45 11.3 22.5 0.00 0.00 0.00 62 1014.8
20260509165618 17 23 14.5 24.1 0.00 0.00 0.00 62 1014.8
20260509164516 18 23 12.9 25.7 0.00 0.00 0.00 61 1014.9
20260509163538 18 23 14.5 32.2 0.00 0.00 0.00 61 1014.9
20260509162517 18 23 14.5 29.0 0.00 0.00 0.00 60 1014.9
20260509161519 18 23 14.5 25.7 0.00 0.00 0.00 61 1015.0
20260509160519 18 23 17.7 30.6 0.00 0.00 0.00 60 1014.9
20260509155537 19 23 16.1 27.4 0.00 0.00 0.00 58 1015.0
20260509154518 19 23 11.3 20.9 0.00 0.00 0.00 59 1015.0
20260509153518 19 23 16.1 27.4 0.00 0.00 0.00 59 1015.0
20260509152518 19 23 16.1 30.6 0.00 0.00 0.00 58 1015.1
20260509151517 18 23 16.1 29.0 0.00 0.00 0.00 59 1015.0
20260509150516 20 23 16.1 27.4 0.00 0.00 0.00 58 1014.9
20260509145538 20 23 16.1 27.4 0.00 0.00 0.00 58 1014.6
20260509144517 20 23 14.5 22.5 0.00 0.00 0.00 60 1014.7
20260509143517 20 23 12.9 25.7 0.00 0.00 0.00 58 1014.7
20260509142516 20 23 6.4 20.9 0.00 0.00 0.00 55 1014.9
20260509141517 20 23 11.3 19.3 0.00 0.00 0.00 49 1014.9
20260509140518 21 45 4.8 19.3 0.00 0.00 0.00 48 1014.9
20260509135518 21 68 1.6 12.9 0.00 0.00 0.00 47 1015.0
20260509134524 20 23 1.6 12.9 0.00 0.00 0.00 48 1015.0
20260509133518 20 68 6.4 16.1 0.00 0.00 0.00 49 1015.1
20260509132516 21 0.0 4.8 0.00 0.00 0.00 47 1015.2
20260509131536 21 0.0 1.6 0.00 0.00 0.00 48 1015.3
20260509130516 21 0.0 1.6 0.00 0.00 0.00 51 1015.3
20260509125516 21 0.0 0.0 0.00 0.00 0.00 48 1015.4
20260509124519 21 0.0 1.6 0.00 0.00 0.00 48 1015.4
20260509123518 20 0.0 0.0 0.00 0.00 0.00 52 1015.5
20260509122518 20 0.0 4.8 0.00 0.00 0.00 50 1015.7
20260509121559 20 0.0 6.4 0.00 0.00 0.00 50 1015.8
20260509120516 20 68 3.2 17.7 0.00 0.00 0.00 49 1015.9
20260509115516 20 68 6.4 14.5 0.00 0.00 0.00 52 1016.0
20260509114516 20 45 8.0 16.1 0.00 0.00 0.00 51 1016.1
20260509113518 20 23 3.2 19.3 0.00 0.00 0.00 51 1016.3
20260509112517 20 68 11.3 20.9 0.00 0.00 0.00 53 1016.4
20260509111517 20 68 9.7 16.1 0.00 0.00 0.00 50 1016.5
20260509110516 20 90 9.7 16.1 0.00 0.00 0.00 51 1016.6
20260509105558 20 90 8.0 16.1 0.00 0.00 0.00 52 1016.5
20260509104517 20 68 11.3 20.9 0.00 0.00 0.00 53 1016.8
20260509103516 20 68 9.7 20.9 0.00 0.00 0.00 52 1016.8
20260509102518 20 68 11.3 19.3 0.00 0.00 0.00 55 1016.9
20260509101516 19 45 11.3 22.5 0.00 0.00 0.00 54 1016.9
20260509100516 19 45 11.3 19.3 0.00 0.00 0.00 54 1016.9
20260509095516 19 45 9.7 19.3 0.00 0.00 0.00 54 1016.9
20260509094521 18 68 12.9 20.9 0.00 0.00 0.00 56 1016.9
20260509093543 18 68 11.3 19.3 0.00 0.00 0.00 55 1017.1
20260509092518 18 68 11.3 17.7 0.00 0.00 0.00 57 1017.0
20260509091537 18 68 11.3 17.7 0.00 0.00 0.00 56 1017.1
20260509090537 18 68 12.9 22.5 0.00 0.00 0.00 57 1017.1
20260509085517 17 68 12.9 24.1 0.00 0.00 0.00 59 1017.1
20260509084516 17 68 9.7 17.7 0.00 0.00 0.00 60 1017.2
20260509083517 17 90 9.7 16.1 0.00 0.00 0.00 61 1017.2
20260509082519 17 68 8.0 14.5 0.00 0.00 0.00 62 1017.2